Miscellaneous Local Product
Issued by NWS North Platte, NE

Home | Current Version | Previous Version | Text Only | Print | Product List | Glossary On
Versions: 1 2 3 4 5 6 7 8 9 10 11 12 13 14 15 16 17 18 19 20 21 22 23 24 25 26 27 28 29 30 31 32 33 34 35 36 37 38 39 40 41 42 43 44 45 46 47 48 49 50
000
AXUS43 KLBF 241810
MISLBF


WESTERN AND NORTH CENTRAL NEBRASKA HOURLY WEATHER ROUNDUP
NATIONAL WEATHER SERVICE NORTH PLATTE NE
100 PM CDT SUN MAY 24 2015

***STATIONS NOT REPORTING VARIABLES SUCH AS SKY/WEATHER OR
PRESSURE ARE PROVIDED BY THE NEBRASKA DEPARTMENT OF
ROADS...RAWS...AND APRS NETWORKS...AND ARE NOT UNDER
NATIONAL WEATHER SERVICE QUALITY CONTROL***

...OBSERVATIONS IN AND NEAR THE EASTERN PANHANDLE OF NEBRASKA...

CITY           SKY/WX    TMP DP  RH WIND       PRES   REMARKS
PINE RIDGE     CLOUDY    58  53  84 NE7       29.88F
CHADRON        PTSUNNY   63  54  72 NE8       29.88S
ALLIANCE       PTSUNNY   61  52  72 VRB3      29.86F
SIDNEY         MOSUNNY   59  50  72 E5        29.89F
WHITECLAY        N/A     56  53  88 N3          N/A
BIG SPRINGS      N/A     63  55  75 E3          N/A
$$

...OBSERVATIONS IN NORTH CENTRAL NEBRASKA...

CITY           SKY/WX    TMP DP  RH WIND       PRES   REMARKS
VALENTINE      CLOUDY    59  57  93 SE10      29.89S
THEDFORD       CLOUDY    61  58  90 CALM      29.89S
AINSWORTH      CLOUDY    59  59  99 E8        29.89S FOG
O`NEILL        CLOUDY    62  60  94 NE9       29.85F FOG
ORD            CLOUDY    63  57  81 N5        29.84F
BROKEN BOW     CLOUDY    64  56  75 CALM      29.86F
BROWNLEE         N/A     61  59  92 E10         N/A
VALENTINE NWR    N/A     57  57  99 E6          N/A
SPRINGVIEW       N/A     60  59  96 SE3         N/A
HALSEY           N/A     60  60 100 SE5         N/A
BREWSTER         N/A     64  61  88 CALM        N/A
ROSE             N/A     65  65  99 CALM        N/A
NEWPORT          N/A     63  60  90 E6          N/A
SARGENT          N/A     62  59  89 CALM        N/A
COMSTOCK         N/A     68  62  82 CALM        N/A
EWING            N/A     62  61  96 NE3         N/A
$$

...OBSERVATIONS IN SOUTHWEST NEBRASKA AND FAR NORTHEAST COLORADO...

CITY           SKY/WX    TMP DP  RH WIND       PRES   REMARKS
WRAY           FAIR      66  52  59 E5        29.88S
IMPERIAL       SUNNY     66  52  60 CALM      29.86F
OGALLALA       CLOUDY    64  54  70 CALM      29.87F
NORTH PLATTE   PTSUNNY   64  54  69 E5        29.87F
MCCOOK         CLOUDY    66  56  70 E6        29.85S
LEXINGTON      CLOUDY    63  58  83 CALM      29.87S
PAXTON           N/A     64  58  80 CALM        N/A
GOTHENBURG       N/A     64  53  68 CALM        N/A
CALLAWAY         N/A     62  60  92 E5          N/A
$$

...NORTH PLATTE AREA...

CITY           SKY/WX    TMP DP  RH WIND       PRES   REMARKS
AIRPORT        PTSUNNY   64  54  69 E5        29.87F
DOWNTOWN         N/A     66  56  70 CALM        N/A
$$

...SOME WEATHER OBSERVATIONS FROM AROUND THE REGION...

CITY           SKY/WX    TMP DP  RH WIND       PRES   REMARKS
DENVER         CLOUDY    54  44  69 E9        29.88F
LARAMIE        CLOUDY    49  33  54 SE9       29.91S
CHEYENNE       PTSUNNY   55  38  52 E10       29.90F
SCOTTSBLUFF    PTSUNNY   62  51  67 E6        29.87F
RAPID CITY     RAIN      54  53  97 E13       29.92S FOG
PIERRE         CLOUDY    63  55  75 E13       29.89F
WINNER         CLOUDY    60  57  89 E10       29.88F
SIOUX FALLS    CLOUDY    61  58  90 E10       29.88F
OMAHA          CLOUDY    65  62  90 S5        29.82F FOG
GRAND ISLAND   CLOUDY    65  57  75 CALM      29.86R
KANSAS CITY    DRIZZLE   67  65  93 S8        29.89F
WICHITA        CLOUDY    68  61  78 SE8       29.88F
HAYS           CLOUDY    66  55  68 S7        29.86S
LIBERAL        CLOUDY    64  55  72 S10       29.86F
GOODLAND       PTSUNNY   65  55  70 VRB3      29.87F
$$



USA.gov is the U.S. government's official web portal to all federal, state and local government web resources and services.